Погода Березино

Погода Березино : погода сейчас, прогноз погоды и архив. Всё, что Вы хотите узнать о погоде Березино!

Хотите узнать прогноз погоды Березино? Тогда Вам сюда: Погода Березино

Поиск расширенной информации на нашем сайте:

Другие новости

Новости СМИ2

Главная страница сайта

Новости сайта

03.07.2017

Напоминаем, что на нашем специализированном сайте Метеоцентр.Азия вы можете получить высокодетализированные автоматические прогнозы погоды по пунктам России, СНГ и мира в авиационном формате (включающие направление и скорость ветра, видимость, явления погоды, количество и форму облачности, нижнюю и верхнюю границу облачности).


Погода Березино - сегодня

Время (UTC), дата Ветер
(°,м/с) 
Видим.   Явления Облачность Т
(°С)
Тd
(°С)
f(%) Тe
(°С)
Pmin
(гПа)
dP
(гПа)
Po
(мм)
O2
(г/м3)
Тmin Tmax R s Состояние
почвы
06 13.10.18 тихо ()   9000 м  дымка  ясно 
+4.6 +3.4 92 +5  1034.1  -0.3  761  301  +0.6         
09 13.10.18 190 (Ю) 10 км    ясно 
+14.1 +8.8 70 +14  1032.9  -0.4  761  290           
12 13.10.18 250 (З) 10 км    1/0 верхняя 
[Ci sp]
+18.2 +8.4 53 +19  1032.9  0.2  761  286           
15 13.10.18 200 (Ю) 10 км    3/0 верхняя 
[Ci fib]
+15.3 +8.9 66 +17  1031.4  -1.7  760  288           
18 13.10.18 тихо ()   10 км    ясно 
+6.5 +6.1 97 +7  1032  0.1  760  298    +18.5       
21 13.10.18 тихо ()   10 км    ясно 
+3.4 +2.9 97 +3  1032.5  0.2  760  302           
00 14.10.18 тихо ()   10 км    ясно 
+1.8 +1.5 98 +2  1032.5  760  304           
06 14.10.18 тихо ()   0200 м  туман  ясно 
+2.4 +2.4 100 +2  1032.5  760  303  +1.2         
09 14.10.18 тихо ()   7000 м  в посл. час туман  ясно 
+11.7 +11 95 +14  1032.2  0.3  760  292           
12 14.10.18 170 (Ю) 10 км  {туман}  3/0 верхняя 
[Ci sp]
+18.6 +11.5 63 +23  1030.3  -1.3  759  284           
15 14.10.18 тихо ()   10 км    3/0 верхняя 
[Ci fib]
+14.9 +11 77 +17  1029.5  -1.1  758  288           
18 14.10.18 тихо ()   7000 м  дымка  3/0 верхняя 
[Ci fib]
+7.3 +7.1 99 +7  1030  758  296    +19.5       
21 14.10.18 тихо ()   6000 м  в посл. час туман  ясно 
+3.9 +3.7 99 +4  1030.7  0.5  759  301           
00 15.10.18 тихо ()   10 км  {туман}  ясно 
+1.8 +1.5 98 +2  1030.6  -0.3  758  303           
06 15.10.18 тихо ()   3000 м  дымка{туман}  3/0 верхняя 
[Ci fib]
+3.1 +2.1 93 +3  1030.5  758  302  -1         
09 15.10.18 210 (ЮЗ) 10 км    4/0 верхняя 
[Ci fib]
+14.9 +6.2 56 +16  1030  0.3  759  289           
12 15.10.18 170 (Ю) 10 км    6/0 верхняя 
[Ci]
+18.8 +5.8 42 +20  1028.8  -0.9  758  285           
15 15.10.18 тихо ()   10 км    9/0 верхняя 
[Cc]
+12.9 +8.8 76 +13  1028.3  -0.9  757  290           
18 15.10.18 тихо ()   10 км    5/0 верхняя 
[Cs]
+6.7 +5.6 93 +7  1028.6  -0.1  757  297    +19.4       
21 15.10.18 тихо ()   10 км    ясно 
+3 +2.2 94 +3  1028.4  -0.5  757  301           
00 16.10.18 тихо ()   10 км    ясно 
+1.7 +1.2 96 +2  1028.5  757  303           
06 16.10.18 тихо ()   9000 м  дымка  ясно 
+4.2 +3 92 +4  1027.8  -0.3  756  300  -0.1         
09 16.10.18 210 (ЮЗ) 10 км    ясно 
+14.9 +6.4 57 +16  1027.3  0.2  757  288           
12 16.10.18 200 (Ю) 10 км    ясно 
+19.4 +8.6 50 +20  1026  -1  756  283           
15 16.10.18 150 (ЮВ) 10 км    ясно 
+15.2 +9.8 70 +18  1025.6  -0.6  755  287           
Время (UTC), дата Ветер
(°,м/с) 
Видим.   Явления Облачность Т
(°С)
Тd
(°С)
f(%) Тe
(°С)
Pmin
(гПа)
dP
(гПа)
Po
(мм)
O2
(г/м3)
Тmin Tmax R s Состояние
почвы

Для получения пояснительной информации подведите курсор к названию столбца.

ПОГОДА Березино - архив

Всё, что Вы хотите узнать о погоде Березино - удобно и подробно!

Выберите нужную дату (начиная с 1 января 2015* года) и нажмите кнопку "Найти".
Будут отображены архивные сводки погоды по пункту Березино, начиная с указанной даты.


Отображать данные в формате CSV (для использования в таблицах Excel)


Внимание! Наш архив погоды предназначен исключительно для личного некоммерческого использования в познавательных целях. Если Вам необходимы официальные справки о состоянии погоды (для производственных, юридических, коммерческих и т.п. целей), обращайтесь в органы Росгидромета.

*Примечание: данная дата относится к архиву по метеостанциям СССР (Россия, СНГ, Балтия).
Архив по метеостанциям Зарубежной Европы и Азии (кроме Китая) хранится 10 дней, по другим регионам земного шара (Китай, Африка, Америка, Австралия, Океания) - 1 день.

Березино - район местоположения метеостанции


Название, широта, долгота, высота метеостанции:
Березино 53.8°ш. 29°д. 154 м над ур. моря [Беларусь]

Дополнительная информация

В oтличие oт бoльшинства пoгoдных сайтoв мы публикуем пoдрoбную метеoинфoрмацию в детальнoм прoфессиoнальнoм фoрмате.

Характеристики температуры и влажнoсти вoздуха измеряются на высoте 2 м в тени вдали oт зданий и деревьев.
Скoрoсть ветра измеряется на высoте 10 м (на урoвне рoста челoвека скoрoсть ветра ниже в 1.5-2 раза). Если метеoстанция нахoдится в гoрoде или в лесу, тo скoрoсть ветра занижена на 2-4 м/с пo сравнению с oткрытым местoм. Скoрoсть ветра над акватoриями крупных рек и oзёр, а также на вершинах хoлмoв на 2-5 м/с выше, чем в oбычных услoвиях.
Атмoсфернoе давление в разных тoчках местнoсти мoжет значительнo oтличаться oт давления на метеoстанции, в зависимoсти oт услoвий рельефа (при пoдъёме на 10 м давление пoнижается примернo на 1 мм рт.ст.).